Location: İstanbul
(41.0082°N, 28.9784°E)
Time: 21:28:51
(UTC+03:00)

NOAA 19 - Pass Details

Date: 27 April 2024
Orbit: 839 x 859 km, 99.0° (Epoch: 29 May)

Event Time Altitude Azimuth Distance (km) Brightness Sun altitude
Exits shadow 20:57:44 14° 132° (SE) 2,178 6.7 -11.2°
Maximum altitude 21:01:58 39° 68° (ENE) 1,236 5.8 -11.9°
Drops below altitude 10° 21:07:00 10° 1° (N) 2,464 8.0 -12.7°
Sets 21:09:29 0° 354° (N) 3,402 8.9 -13.1°
